Regional Weather Roundup
Issued by NWS Huntsville, AL

Home | Current Version | Previous Version | Text Only | Print | Product List | Glossary On
Versions: 1 2 3 4 5 6 7 8 9 10 11 12 13 14 15 16 17 18 19 20 21 22 23 24 25 26 27 28 29 30 31 32 33 34 35 36 37 38 39 40 41 42 43 44 45 46 47 48 49 50
000
ASUS44 KHUN 180210
RWRHUN

WEATHER ROUNDUP FOR THE TENNESSEE VALLEY
NATIONAL WEATHER SERVICE HUNTSVILLE AL
800 PM CST WED JAN 17 2018

ALZ001>004-180300-
NORTHWEST ALABAMA

CITY           SKY/WX    TMP DP  RH WIND       PRES   REMARKS
COURTLAND HCN    N/A     19 N/A N/A CALM        N/A
RUSSELLVILLE     N/A     14 N/A N/A MISG        N/A
SHOALS AIRPORT FAIR      20   9  62 NW6       30.60S WCI  12
SHOALS TVA RES   N/A     19 N/A N/A MISG        N/A
$$

ALZ005>007-016-180300-
NORTH CENTRAL ALABAMA

CITY           SKY/WX    TMP DP  RH WIND       PRES   REMARKS
CULLMAN AG STN   N/A     18 N/A N/A N5          N/A  WCI  11
DECATUR AP     FAIR      16  10  77 N5        30.58S WCI   9
HUNTSVILLE AP  FAIR      17   9  70 N5        30.56S WCI  10
MERIDIANVILLE  FAIR      18   9  68 N5        30.56S WCI  11
REDSTONE ARSN  FAIR      15   8  73 N5        30.56S WCI   8
VINEMONT AP    FAIR      16   7  66 N5        30.55R WCI   9
$$

ALZ008>010-180300-
NORTHEAST ALABAMA

CITY           SKY/WX    TMP DP  RH WIND       PRES   REMARKS
ALBERTVILLE    FAIR      18  12  79 N8        30.50R WCI   7
FORT PAYNE     FAIR      16   5  62 N6        30.51S WCI   7
SCOTTSBORO AP  FAIR      16   9  73 NE6       30.56S WCI   7
SCOTTSBORO HCN   N/A     16 N/A N/A MISG        N/A
VALLEY HEAD      N/A     16 N/A N/A MISG        N/A
$$

TNZ076-096-097-180300-
SOUTHEASTERN MIDDLE TENNESSEE

CITY           SKY/WX    TMP DP  RH WIND       PRES   REMARKS
TULLAHOMA      CLEAR     10   7  85 N3        30.53S
WINCHESTER     CLEAR     10   7  85 N3        30.54F
$$

...SURROUNDING SITES...

CITY           SKY/WX    TMP DP  RH WIND       PRES   REMARKS
ATLANTA        FAIR      21   9  59 NW15      30.40R WCI   8
ANNISTON       FAIR      21   9  59 VRB5      30.51F WCI  15
BIRMINGHAM     FAIR      21   9  59 N9        30.56S WCI  11
CHATTANOOGA    FAIR      16   7  67 N8        30.54R WCI   5
CORINTH        FAIR      18   9  68 NW5       30.61F WCI  11
DALTON         FAIR      18  10  73 N9        30.52R WCI   6
GADSDEN        FAIR      19  11  70 N5        30.55R WCI  12
GOLDEN TRNGL   FAIR      20  12  71 CALM      30.62S
HALEYVILLE     FAIR      15  10  80 NW6       30.57S WCI   6
JACKSON TN     FAIR       8   5  87 CALM      30.63F
MEMPHIS        FAIR      16   9  74 CALM      30.63F
NASHVILLE      FAIR      15   7  70 N5        30.59S WCI   8
OXFORD MS      FAIR      14  10  85 N6        30.63F WCI   5
ROME           FAIR      20   9  62 N13       30.50R WCI   7
SAVANNAH       CLEAR     16   9  73 CALM      30.61S
SELMER         CLEAR     12   7  79 VRB5      30.60S WCI   4
TUPELO         FAIR      20   9  62 NW7       30.62S WCI  11
TUSCALOOSA     FAIR      24  12  60 NW7       30.61R WCI  16
$$

...GULF COAST WEATHER...

CITY           SKY/WX    TMP DP  RH WIND       PRES   REMARKS
GULFPORT       FAIR      30  12  47 N9        30.58S WCI  22
PASCAGOULA     FAIR      29  10  45 N8        30.58R WCI  21
MOBILE         FAIR      27  10  49 N8        30.56S WCI  19
GULF SHORES    FAIR      28  10  48 N8        30.56R WCI  20
PENSACOLA      FAIR      28  10  46 N10G22    30.54S WCI  19
DESTIN         FAIR      32  11  41 N18G28    30.52R WCI  20
PANAMA CITY    FAIR      29   9  43 N9        30.49R WCI  20
APPALACHICOLA  FAIR      30   9  41 N10       30.46R WCI  21
$$




USA.gov is the U.S. government's official web portal to all federal, state and local government web resources and services.